Weather History for Chester, SC

Change the Weather History Date:

Wednesday, January 16, 2013

  Actual Average (KUZA) Record (KUZA)
Temperature  
Mean Temperature 48 °F -  
Max Temperature 53 °F 51 °F 76 °F (1950)
Min Temperature 44 °F 30 °F 6 °F (1963)
Degree Days  
Heating Degree Days 16    
Moisture  
Dew Point 49 °F    
Average Humidity 100    
Maximum Humidity 100    
Minimum Humidity 100    
Precipitation  
Precipitation 0.38 in - - ()
Sea Level Pressure  
Sea Level Pressure 30.01 in    
Wind  
Wind Speed 5 mph (NNE)    
Max Wind Speed 9 mph    
Max Gust Speed -    
Visibility 5 miles    
Events Fog , Rain    
Averages and records for this station are not official NWS values.
T = Trace of Precipitation, MM = Missing Value Source: NWS Daily Summary

Daily Weather History Graph

Daily Weather History Graph

Search for Another Location

Airport:

Trip Planner

Search our weather history database for the weather conditions in past years. The results will help you decide how hot, cold, wet, or windy it might be!

Date:

Astronomy

Jan. 16, 2013 Rise Set
Actual Time 7:31 AM EST 5:38 PM EST
Civil Twilight 7:04 AM EST 6:05 PM EST
Nautical Twilight 6:33 AM EST 6:36 PM EST
Astronomical Twilight 6:02 AM EST 7:06 PM EST
Moon 10:22 AM EST (1/16) 11:11 PM EST (1/16)
Length of Visible Light 11h 01m
Length of Day
10h 06m
Waxing Crescent, 28% of the Moon is Illuminated
Jan 16
Waxing Crescent
Jan 18
First Quarter
Jan 26
Full
Feb 3
Last Quarter
Feb 10
New

Hourly Weather History & Observations

Time (EST) Temp. Windchill Dew Point Humidity Pressure Visibility Wind Dir Wind Speed Gust Speed Precip Events Conditions
12:15 AM 48.2 °F - 48.2 °F 100% 30.05 in 1.2 mi NNE 8.1 mph - N/A   Overcast
12:35 AM 48.2 °F - 48.2 °F 100% 30.05 in 1.2 mi North 6.9 mph - N/A   Overcast
12:55 AM 46.4 °F 43.5 °F 46.4 °F 100% 30.05 in 1.2 mi NNE 5.8 mph - N/A   Overcast
1:15 AM 46.4 °F 43.5 °F 46.4 °F 100% 30.04 in 1.5 mi NNE 5.8 mph - N/A   Drizzle
1:55 AM 46.4 °F 43.5 °F 46.4 °F 100% 30.04 in 2.5 mi NNE 5.8 mph - 0.01 in   Heavy Drizzle
2:15 AM 46.4 °F 42.9 °F 46.4 °F 100% 30.04 in 4.0 mi NNE 6.9 mph - 0.01 in   Drizzle
2:35 AM 46.4 °F 42.9 °F 46.4 °F 100% 30.03 in 5.0 mi NNE 6.9 mph - 0.01 in   Light Drizzle
2:55 AM 46.4 °F 44.3 °F 46.4 °F 100% 30.02 in 7.0 mi NE 4.6 mph - 0.01 in Rain Light Rain
3:15 AM 46.4 °F 42.9 °F 46.4 °F 100% 30.02 in 5.0 mi NNE 6.9 mph - N/A   Overcast
3:35 AM 46.4 °F 43.5 °F 46.4 °F 100% 30.02 in 5.0 mi North 5.8 mph - N/A   Overcast
3:55 AM 46.4 °F 41.9 °F 46.4 °F 100% 30.02 in 7.0 mi NNE 9.2 mph - N/A   Overcast
4:15 AM 44.6 °F 42.2 °F 44.6 °F 100% 30.01 in 7.0 mi NNE 4.6 mph - N/A   Drizzle
4:35 AM 44.6 °F 41.4 °F 44.6 °F 100% 30.00 in 7.0 mi NNE 5.8 mph - N/A   Overcast
5:15 AM 44.6 °F 42.2 °F 44.6 °F 100% 30.01 in 7.0 mi North 4.6 mph - 0.02 in   Overcast
5:35 AM 44.6 °F 42.2 °F 44.6 °F 100% 30.00 in 7.0 mi NNE 4.6 mph - 0.02 in   Overcast
6:15 AM 44.6 °F 42.2 °F 44.6 °F 100% 30.01 in 3.0 mi NNE 4.6 mph - N/A   Overcast
6:35 AM 44.6 °F 40.2 °F 44.6 °F 100% 30.00 in 1.5 mi NNE 8.1 mph - N/A   Overcast
7:15 AM 44.6 °F 42.2 °F 44.6 °F 100% 30.01 in 2.5 mi NNE 4.6 mph - 0.01 in   Light Drizzle
7:35 AM 44.6 °F 42.2 °F 44.6 °F 100% 30.01 in 2.5 mi NNE 4.6 mph - 0.01 in   Overcast
8:15 AM 44.6 °F 41.4 °F 44.6 °F 100% 30.01 in 1.2 mi NE 5.8 mph - N/A   Overcast
8:35 AM 44.6 °F 43.1 °F 44.6 °F 100% 30.02 in 0.2 mi NE 3.5 mph - N/A Fog Fog
8:55 AM 46.4 °F 45.2 °F 46.4 °F 100% 30.03 in 0.2 mi North 3.5 mph - N/A Fog Fog
9:15 AM 46.4 °F 44.3 °F 46.4 °F 100% 30.03 in 0.5 mi North 4.6 mph - N/A Fog Fog
9:35 AM 46.4 °F - 46.4 °F 100% 30.04 in 0.5 mi Calm Calm - N/A Fog Fog
9:55 AM 46.4 °F - 46.4 °F 100% 30.04 in 1.0 mi Calm Calm - N/A   Overcast
10:15 AM 46.4 °F - 46.4 °F 100% 30.04 in 1.5 mi Calm Calm - N/A Rain Rain
10:35 AM 46.4 °F - 46.4 °F 100% 30.04 in 2.5 mi Calm Calm - 0.02 in Rain Light Rain
10:55 AM 48.2 °F - 48.2 °F 100% 30.03 in 3.0 mi Calm Calm - 0.02 in   Drizzle
11:15 AM 48.2 °F - 48.2 °F 100% 30.02 in 3.0 mi Calm Calm - 0.01 in Rain Rain
11:35 AM 50.0 °F - 50.0 °F 100% 30.02 in 5.0 mi North 3.5 mph - 0.03 in Rain Light Rain
11:55 AM 50.0 °F - 50.0 °F 100% 30.01 in 5.0 mi North 6.9 mph - 0.03 in   Drizzle
12:15 PM 50.0 °F - 50.0 °F 100% 30.02 in 7.0 mi NNW 6.9 mph - N/A Rain Light Rain
12:35 PM 50.0 °F - 50.0 °F 100% 30.01 in 7.0 mi North 8.1 mph - N/A   Overcast
12:55 PM 50.0 °F - 50.0 °F 100% 30.02 in 7.0 mi North 8.1 mph - N/A Rain Rain
1:15 PM 48.2 °F - 48.2 °F 100% 30.02 in 7.0 mi North 9.2 mph - 0.01 in Rain Heavy Rain
1:35 PM 50.0 °F - 50.0 °F 100% 30.00 in 4.0 mi NNE 5.8 mph - 0.03 in   Heavy Drizzle
1:55 PM 50.0 °F - 50.0 °F 100% 29.99 in 5.0 mi NE 5.8 mph - 0.04 in   Drizzle
2:55 PM 50.0 °F - 50.0 °F 100% 29.99 in 5.0 mi East 3.5 mph - 0.02 in   Drizzle
3:15 PM 50.0 °F - 50.0 °F 100% 29.99 in 10.0 mi East 4.6 mph - N/A Rain Light Rain
3:55 PM 51.8 °F - 51.8 °F 100% 29.99 in 10.0 mi Calm Calm - N/A   Overcast
4:15 PM 51.8 °F - 51.8 °F 100% 29.99 in 10.0 mi Calm Calm - N/A   Overcast
4:35 PM 51.8 °F - 51.8 °F 100% 30.00 in 10.0 mi Calm Calm - N/A   Overcast
4:55 PM 51.8 °F - 51.8 °F 100% 29.99 in 10.0 mi Calm Calm - N/A   Light Drizzle
5:15 PM 51.8 °F - 51.8 °F 100% 30.00 in 10.0 mi Calm Calm - N/A   Overcast
5:35 PM 51.8 °F - 51.8 °F 100% 30.00 in 10.0 mi Calm Calm - N/A   Overcast
5:55 PM 51.8 °F - 51.8 °F 100% 30.00 in 10.0 mi Calm Calm - N/A   Overcast
6:35 PM 51.8 °F - 51.8 °F 100% 30.00 in 10.0 mi NNW 3.5 mph - N/A   Overcast
6:55 PM 51.8 °F - 51.8 °F 100% 30.00 in 10.0 mi Calm Calm - N/A   Overcast
7:15 PM 51.8 °F - 51.8 °F 100% 29.99 in 10.0 mi ESE 5.8 mph - N/A   Overcast
7:35 PM 51.8 °F - 51.8 °F 100% 29.99 in 7.0 mi Calm Calm - N/A   Overcast
7:55 PM 51.8 °F - 51.8 °F 100% 29.99 in 7.0 mi Calm Calm - N/A   Overcast
8:15 PM 51.8 °F - 51.8 °F 100% 30.01 in 7.0 mi Calm Calm - N/A   Overcast
8:35 PM 51.8 °F - 51.8 °F 100% 30.00 in 5.0 mi Calm Calm - N/A Rain Light Rain
8:55 PM 51.8 °F - 51.8 °F 100% 30.00 in 5.0 mi North 3.5 mph - N/A   Drizzle
9:15 PM 51.8 °F - 51.8 °F 100% 30.00 in 4.0 mi NNW 4.6 mph - 0.01 in   Light Drizzle
9:35 PM 51.8 °F - 51.8 °F 100% 30.00 in 4.0 mi Calm Calm - 0.01 in   Drizzle
9:55 PM 51.8 °F - 51.8 °F 100% 29.99 in 5.0 mi Calm Calm - 0.01 in Rain Rain
10:15 PM 51.8 °F - 51.8 °F 100% 30.00 in 4.0 mi SSE 3.5 mph - 0.03 in Rain Rain
10:55 PM 51.8 °F - 51.8 °F 100% 29.99 in 4.0 mi Calm Calm - 0.06 in Rain Rain
11:15 PM 53.6 °F - 53.6 °F 100% 29.99 in 4.0 mi Calm Calm - 0.05 in Rain Rain
11:55 PM 51.8 °F - 51.8 °F 100% 29.99 in 5.0 mi Calm Calm - 0.15 in Rain Rain